DAMPE (41173 NORAD) Tracking and Keplerian Element Data

This shows tracking and keplerian element data for the satellite.

Feedback or suggestion? Click here.




ElementValue
Catalog41173
NameDAMPE
Epoch Orbit16660
Epoch Day349.20537244
Epoch Year2018
RAAN347.0599
Inclination97.2982
Eccentricity0.0015053
Argument of Perigee36.5966
Mean Anonmoly24.9958
Mean Motion15.23746604
Decay Rate-6E-08
L11 41173U 15078A 18349.20537244 -.00000006 00000-0 26107-5 0 9997
L22 41173 97.2982 347.0599 0015053 36.5966 24.9958 15.23746604166605

Live tracking and technical data element details for DAMPE (NORAD 41173). DAMPE can be tracked NOW for your location showing map with azimuth and elevation plus other details from your city location.

Track the satellite on the map from your city or location and see movement details for azimuth, elevation, latitude, longitude, range, height, and movement on the map or in text.







IsCatalogInMostPopularTable: catalog: 41173, numindb: 85
Update: records affected: 1



GetName: 41173 DAMPE

Hit Count: updated at: Sat, 15 Dec 2018 13:55:05 GMT